Weather History for Indianapolis, IN

Change the Weather History Date:

Friday, November 16, 2012

  Actual Average (KEYE) Record (KEYE)
Temperature  
Mean Temperature 36 °F 44 °F  
Max Temperature 49 °F 52 °F 70 °F (2001)
Min Temperature 23 °F 36 °F 19 °F (1997)
Degree Days  
Heating Degree Days 29 21  
Month to date heating degree days 289  
Since 1 July heating degree days 681  
Cooling Degree Days 0 0  
Month to date cooling degree days 0  
Year to date cooling degree days 1058  
Moisture  
Dew Point 26 °F    
Average Humidity 72    
Maximum Humidity 90    
Minimum Humidity 37    
Precipitation  
Precipitation 0.00 in 0.14 in 0.89 in (2006)
Month to date precipitation 1.97  
Year to date precipitation 35.98  
Sea Level Pressure  
Sea Level Pressure 30.44 in    
Wind  
Wind Speed 1 mph (ENE)    
Max Wind Speed 6 mph    
Max Gust Speed -    
Visibility 6 miles    
Events      
T = Trace of Precipitation, MM = Missing Value Source: NWS Daily Summary

Daily Weather History Graph

Daily Weather History Graph

Search for Another Location

Airport:

Trip Planner

Search our weather history database for the weather conditions in past years. The results will help you decide how hot, cold, wet, or windy it might be!

Date:

Astronomy

Nov. 16, 2012 Rise Set
Actual Time 7:31 AM EST 5:27 PM EST
Civil Twilight 7:02 AM EST 5:56 PM EST
Nautical Twilight 6:29 AM EST 6:29 PM EST
Astronomical Twilight 5:57 AM EST 7:01 PM EST
Moon 10:25 AM EST (11/16) 8:26 PM EST (11/16)
Length of Visible Light 10h 53m
Length of Day
9h 55m
Waxing Crescent, 11% of the Moon is Illuminated
Nov 16
Waxing Crescent
Nov 20
First Quarter
Nov 28
Full
Dec 6
Last Quarter
Dec 13
New

Hourly Weather History & Observations

Time (EST) Temp. Windchill Dew Point Humidity Pressure Visibility Wind Dir Wind Speed Gust Speed Precip Events Conditions
12:15 AM 26.1 °F - 23.0 °F 88% 30.38 in 3.0 mi Calm Calm - N/A   Clear
12:35 AM 25.9 °F - 23.0 °F 89% 30.38 in 3.0 mi Calm Calm - N/A   Clear
12:55 AM 25.9 °F - 22.8 °F 88% 30.38 in 3.0 mi Calm Calm - N/A   Clear
1:15 AM 25.7 °F - 22.6 °F 88% 30.38 in 3.0 mi Calm Calm - N/A   Clear
1:35 AM 24.8 °F - 21.7 °F 88% 30.38 in 3.0 mi Calm Calm - N/A   Clear
1:55 AM 25.3 °F - 22.5 °F 89% 30.38 in 2.5 mi Calm Calm - N/A   Clear
2:15 AM 25.3 °F - 22.6 °F 89% 30.38 in 1.8 mi Calm Calm - N/A   Mist
2:35 AM 25.3 °F - 22.6 °F 89% 30.39 in 3.0 mi Calm Calm - N/A   Clear
2:55 AM 25.3 °F - 22.5 °F 89% 30.39 in 4.0 mi Calm Calm - N/A   Clear
3:15 AM 24.6 °F - 21.9 °F 89% 30.40 in 2.5 mi Calm Calm - N/A   Clear
3:35 AM 24.1 °F - 21.4 °F 89% 30.40 in 2.5 mi Calm Calm - N/A   Clear
3:55 AM 24.6 °F - 21.9 °F 89% 30.40 in 5.0 mi Calm Calm - N/A   Clear
4:35 AM 23.9 °F - 21.0 °F 89% 30.40 in 3.0 mi Calm Calm - N/A   Clear
4:55 AM 24.6 °F - 21.7 °F 89% 30.40 in 4.0 mi Calm Calm - N/A   Clear
5:15 AM 23.7 °F - 20.8 °F 89% 30.40 in 3.0 mi Calm Calm - N/A   Clear
5:35 AM 23.9 °F - 21.0 °F 89% 30.41 in 2.5 mi Calm Calm - N/A   Clear
5:55 AM 23.9 °F - 21.2 °F 89% 30.41 in 3.0 mi Calm Calm - N/A   Clear
6:15 AM 23.4 °F - 20.5 °F 89% 30.41 in 4.0 mi Calm Calm - N/A   Clear
6:35 AM 23.0 °F - 19.9 °F 88% 30.41 in 3.0 mi Calm Calm - N/A   Clear
6:55 AM 24.8 °F - 21.9 °F 89% 30.41 in 2.5 mi Calm Calm - N/A   Clear
7:15 AM 23.0 °F - 20.1 °F 89% 30.42 in 4.0 mi Calm Calm - N/A   Clear
7:35 AM 23.2 °F - 20.1 °F 88% 30.43 in 4.0 mi Calm Calm - N/A   Clear
7:55 AM 23.7 °F - 20.5 °F 87% 30.43 in 3.0 mi Calm Calm - N/A   Clear
8:15 AM 24.6 °F - 21.2 °F 87% 30.43 in 4.0 mi Calm Calm - N/A   Clear
8:35 AM 27.3 °F - 23.9 °F 87% 30.44 in 3.0 mi Calm Calm - N/A   Clear
8:55 AM 29.3 °F - 26.1 °F 88% 30.45 in 2.5 mi Calm Calm - N/A   Clear
9:15 AM 32.0 °F - 29.3 °F 90% 30.46 in 2.0 mi Calm Calm - N/A   Clear
9:35 AM 34.9 °F - 32.0 °F 89% 30.46 in 2.5 mi Calm Calm - N/A   Clear
9:55 AM 38.3 °F - 32.5 °F 80% 30.46 in 4.0 mi Calm Calm - N/A   Haze
10:15 AM 40.1 °F 38.0 °F 32.2 °F 73% 30.46 in 4.0 mi East 3.5 mph - N/A   Haze
10:35 AM 41.0 °F 38.0 °F 32.0 °F 70% 30.47 in 5.0 mi ENE 4.6 mph - N/A   Haze
10:55 AM 41.9 °F 39.0 °F 31.6 °F 67% 30.48 in 5.0 mi NE 4.6 mph - N/A   Haze
11:15 AM 43.9 °F 41.3 °F 31.8 °F 63% 30.47 in 5.0 mi East 4.6 mph - N/A   Haze
11:35 AM 44.6 °F 42.2 °F 31.5 °F 60% 30.47 in 5.0 mi East 4.6 mph - N/A   Haze
11:55 AM 45.5 °F 44.2 °F 30.9 °F 57% 30.47 in 5.0 mi East 3.5 mph - N/A   Haze
12:15 PM 45.5 °F 42.5 °F 30.6 °F 56% 30.46 in 5.0 mi East 5.8 mph - N/A   Haze
12:35 PM 46.6 °F - 30.4 °F 53% 30.46 in 7.0 mi ENE 4.6 mph - N/A   Clear
12:55 PM 46.8 °F - 30.2 °F 53% 30.46 in 7.0 mi Calm Calm - N/A   Clear
1:15 PM 47.5 °F - 29.8 °F 50% 30.45 in 10.0 mi NE 4.6 mph - N/A   Clear
1:35 PM 48.7 °F - 29.8 °F 48% 30.45 in 10.0 mi East 5.8 mph - N/A   Clear
1:55 PM 48.7 °F - 28.8 °F 46% 30.44 in 10.0 mi ESE 3.5 mph - N/A   Clear
2:15 PM 48.7 °F - 27.9 °F 44% 30.44 in 10.0 mi East 4.6 mph - N/A   Clear
2:35 PM 49.6 °F - 25.3 °F 39% 30.44 in 10.0 mi ESE 3.5 mph - N/A   Clear
2:55 PM 49.3 °F - 27.1 °F 42% 30.44 in 10.0 mi Calm Calm - N/A   Clear
3:15 PM 49.6 °F - 24.1 °F 37% 30.44 in 10.0 mi Calm Calm - N/A   Clear
3:35 PM 49.8 °F - 24.6 °F 37% 30.44 in 10.0 mi Calm Calm - N/A   Clear
3:55 PM 49.6 °F - 26.1 °F 40% 30.44 in 10.0 mi Calm Calm - N/A   Clear
4:15 PM 49.1 °F - 27.3 °F 43% 30.45 in 10.0 mi Calm Calm - N/A   Clear
4:35 PM 48.6 °F - 27.9 °F 45% 30.45 in 10.0 mi NE 3.5 mph - N/A   Clear
4:55 PM 46.8 °F - 27.5 °F 47% 30.45 in 10.0 mi NE 4.6 mph - N/A   Clear
5:15 PM 44.2 °F 41.8 °F 27.5 °F 52% 30.46 in 10.0 mi NNE 4.6 mph - N/A   Clear
5:35 PM 42.8 °F 41.1 °F 27.5 °F 55% 30.46 in 10.0 mi NNE 3.5 mph - N/A   Clear
5:55 PM 43.0 °F 41.3 °F 28.0 °F 56% 30.46 in 10.0 mi North 3.5 mph - N/A   Clear
6:15 PM 40.1 °F 38.0 °F 27.9 °F 62% 30.46 in 10.0 mi NE 3.5 mph - N/A   Clear
6:35 PM 40.5 °F - 28.2 °F 62% 30.47 in 10.0 mi Calm Calm - N/A   Clear
6:55 PM 38.7 °F 36.3 °F 28.0 °F 66% 30.47 in 10.0 mi NNE 3.5 mph - N/A   Clear
7:15 PM 37.8 °F 35.3 °F 28.4 °F 69% 30.47 in 10.0 mi NNE 3.5 mph - N/A   Clear
7:35 PM 38.5 °F 36.1 °F 28.4 °F 67% 30.47 in 10.0 mi NE 3.5 mph - N/A   Clear
7:55 PM 34.2 °F 31.2 °F 27.3 °F 76% 30.48 in 10.0 mi NNE 3.5 mph - N/A   Clear
8:15 PM 34.0 °F 29.8 °F 26.8 °F 75% 30.48 in 10.0 mi NE 4.6 mph - N/A   Clear
8:55 PM 32.0 °F 28.7 °F 26.6 °F 80% 30.48 in 7.0 mi NE 3.5 mph - N/A   Clear
9:15 PM 32.2 °F 28.9 °F 26.4 °F 79% 30.48 in 7.0 mi NE 3.5 mph - N/A   Clear
9:35 PM 31.6 °F 28.3 °F 26.2 °F 80% 30.48 in 7.0 mi NE 3.5 mph - N/A   Clear
9:55 PM 32.0 °F 28.7 °F 26.6 °F 80% 30.48 in 7.0 mi East 3.5 mph - N/A   Clear
10:15 PM 32.9 °F - 27.5 °F 81% 30.49 in 7.0 mi Calm Calm - N/A   Clear
10:35 PM 33.3 °F - 27.0 °F 78% 30.49 in 7.0 mi Calm Calm - N/A   Clear
10:55 PM 32.2 °F 28.9 °F 25.2 °F 75% 30.49 in 7.0 mi East 3.5 mph - N/A   Clear
11:15 PM 31.8 °F 28.5 °F 26.2 °F 80% 30.48 in 7.0 mi East 3.5 mph - N/A   Clear
11:35 PM 30.6 °F 25.8 °F 26.1 °F 83% 30.48 in 5.0 mi ESE 4.6 mph - N/A   Clear
11:55 PM 31.3 °F - 27.0 °F 84% 30.48 in 7.0 mi Calm Calm - N/A   Clear